Regional Weather Roundup
Issued by NWS

Home | Current Version | Previous Version | Graphics & Text | Print | Product List | Glossary On
Versions: 1 2 3 4 5 6 7 8 9 10 11 12 13 14 15 16 17 18 19 20 21 22 23 24 25 26 27 28 29 30 31 32 33 34 35 36 37 38 39 40 41 42 43 44 45 46 47 48 49 50
000
ASUS43 KIND 260059
RWRIN

WEATHER ROUNDUP FOR INDIANA
NATIONAL WEATHER SERVICE INDIANAPOLIS IN
900 PM EDT FRI JUL 25 2014

NOTE: "FAIR" INDICATES FEW OR NO CLOUDS BELOW 12,000 FEET WITH NO
SIGNIFICANT WEATHER AND/OR OBSTRUCTIONS TO VISIBILITY.

* - STATION DOES NOT REPORT WEATHER SUCH AS PRECIPITATION OR FOG.

+ - STATION NOT QUALITY CONTROLLED BY THE NATIONAL WEATHER SERVICE.
    USE DATA WITH CAUTION...ESPECIALLY DEWPOINT AND RELATIVE
    HUMIDITY OBSERVATIONS.

INZ001>003-010>013-019-020-260200-
NORTHWEST INDIANA

CITY           SKY/WX    TMP DP  RH WIND       PRES   REMARKS
GARY /AIRPORT/ PTCLDY    73  59  60 S6        29.94S
KNOX *+        PTCLDY    68  57  67 S3        29.95F
MONTICELLO +   MOCLDY    69  62  77 CALM      29.96S
RENSSELAER +   PTCLDY    68  63  83 S3        29.96S
VALPARAISO     CLEAR     68  59  73 S6        29.96S

$$

LMZ046-743>745-260200-
SOUTHERN LAKE MICHIGAN

STATION/POSITION TIME  TEMP WIND        PRES
                       AIR  DIR/SP/G
                 (UTC) (F)  (DEG/KT/KT) (MB)
MICHIGAN CITY    0000   71  160/  9/ 12   N/A

$$

INZ004-005-014>016-021>024-260200-
NORTH CENTRAL INDIANA

CITY           SKY/WX    TMP DP  RH WIND       PRES   REMARKS
ELKHART        MOCLDY    70  57  64 S3        29.97S
GOSHEN         MOCLDY    68  59  73 SW3       29.96F
SOUTH BEND     PTCLDY    71  56  58 S7        29.96F
WARSAW +       PTCLDY    68  59  73 CALM      29.97S

$$

INZ006>009-017-018-025>027-260200-
NORTHEAST INDIANA

CITY           SKY/WX    TMP DP  RH WIND       PRES   REMARKS
ANGOLA *+      CLOUDY    70  61  73 CALM      29.98S
AUBURN +       CLOUDY    70  54  56 CALM      29.99S
FORT WAYNE     MOCLDY    70  57  63 S6        29.98F

$$

INZ028-029-035-036-043>045-051>053-260200-
WEST CENTRAL INDIANA

CITY           SKY/WX    TMP DP  RH WIND       PRES   REMARKS
GREENCASTLE +  MOCLDY    66  61  82 CALM      29.99R
LAFAYETTE      CLOUDY    71  58  63 CALM      29.97R
TERRE HAUTE    PTCLDY    71  60  68 CALM      29.98R

$$

INZ030>032-037>040-046>048-054>057-064-065-260200-
CENTRAL INDIANA

CITY           SKY/WX    TMP DP  RH WIND       PRES   REMARKS
COLUMBUS       PTCLDY    72  63  73 CALM      29.98R
INDIANAPOLIS   MOCLDY    70  58  65 S5        29.97R
-EAGLE CREEK   PTCLDY    71  57  61 CALM      29.97S
KOKOMO *+      CLOUDY    68  63  83 SE5       29.99R
MT COMFORT *+  CLEAR     68  64  88 CALM      29.99R
SHELBYVILLE    CLEAR     70  60  70 SE5       29.98R

$$

INZ033-034-041-042-049-050-058-059-260200-
EAST CENTRAL INDIANA

CITY           SKY/WX    TMP DP  RH WIND       PRES   REMARKS
MUNCIE         CLOUDY    70  56  61 CALM      29.99S

$$

INZ060-061-067>069-081>083-085>088-260200-
SOUTHWEST INDIANA

CITY           SKY/WX    TMP DP  RH WIND       PRES   REMARKS
EVANSVILLE     PTCLDY    75  59  57 SW3       29.97R
HUNTINGBURG *+ PTCLDY    72  61  68 CALM      29.98R

$$

INZ062-063-066-070>080-084-089>092-260200-
SOUTH CENTRAL AND SOUTHEAST INDIANA

CITY           SKY/WX    TMP DP  RH WIND       PRES   REMARKS
BLOOMINGTON    PTCLDY    68  61  78 CALM      29.98R

$$



USA.gov is the U.S. government's official web portal to all federal, state and local government web resources and services.